Location: Norton
(51.3000°N, 0.8167°E)
Time: 02:58:23
(UTC+00:00)

Ariane Rocket - Pass Details

Date: 03 March 2021
Orbit: 759 x 771 km, 98.7° (Epoch: 13 April)

Event Time Altitude Azimuth Distance (km) Brightness Sun altitude
Exits shadow 18:42:04 10° 120° (ESE) 2,342 5.0 -10.3°
Reaches altitude 10° 18:42:09 10° 120° (ESE) 2,315 4.9 -10.3°
Maximum altitude 18:46:30 30° 61° (ENE) 1,373 3.9 -11.0°
Drops below altitude 10° 18:50:53 10° 2° (N) 2,324 5.5 -11.7°
Sets 18:53:26 0° 352° (N) 3,254 6.4 -12.1°
